User: anonymous   Login
Location: Cisewo
(53.3833°N, 14.9000°E)
Time: 19:32:17
(UTC+00:00)
Language:

POLYITAN 1 - Orbit

View from above orbital plane
View from above orbital plane
View from above satellite
View from above satellite

Ground track
Ground track

The orbit data is extracted from the following two-line orbital elements,

1 40042U 14033AJ  21262.59929288  .00000414  00000-0  49600-4 0  9998
2 40042  97.9437 194.4362 0013442 216.1387 143.8923 14.89361384393329
Epoch (UTC): 19 September 2021 14:22:58
Eccentricity: 0.0013442
inclination: 97.9437°
perigee height: 590 km
apogee height: 609 km
right ascension of ascending node: 194.4362°
argument of perigee: 216.1387°
revolutions per day: 14.89361384
mean anomaly at epoch: 143.8923°
orbit number at epoch: 39332

The dashed part of the orbit path shows where the satellite is in the earth's shadow,  

DLR